User: anonymous   Login
Location: Turtle Rock Observatory
(36.6913°N, 81.9708°W)
Time: 05:27:55
(UTC-05:00)
Language:

Cosmos 1125 Rocket - Orbit

View from above orbital plane
View from above orbital plane
View from above satellite
View from above satellite

Ground track
Ground track

The orbit data is extracted from the following two-line orbital elements,

1 11511U 79078B   17321.55432106 +.00000060 +00000-0 +29079-4 0  9997
2 11511 074.0388 033.4095 0016727 242.4541 117.4913 14.36792856000355
Epoch (UTC): 17 November 2017 13:18:13
Eccentricity: 0.0016727
inclination: 74.0388°
perigee height: 757 km
apogee height: 781 km
right ascension of ascending node: 33.4095°
argument of perigee: 242.4541°
revolutions per day: 14.36792856
mean anomaly at epoch: 117.4913°
orbit number at epoch: 35

The dashed part of the orbit path shows where the satellite is in the earth's shadow,  

DLR